Regional Weather Roundup
Issued by NWS Charleston, SC

Current Version | Previous Version | Graphics & Text | Print | Product List | Glossary On
Versions: 1 2 3 4 5 6 7 8 9 10 11 12 13 14 15 16 17 18 19 20 21 22 23 24 25 26 27 28 29 30 31 32 33 34 35 36 37 38 39 40 41 42 43 44 45 46 47 48 49 50
000 ASUS42 KCHS 190827 RWRCHS REGIONAL WEATHER ROUNDUP NATIONAL WEATHER SERVICE CHARLESTON SC 400 AM EDT SAT AUG 19 2017 NOTE: "FAIR" INDICATES FEW OR NO CLOUDS BELOW 12,000 FEET WITH NO SIGNIFICANT WEATHER AND/OR OBSTRUCTIONS TO VISIBILITY. NOT ALL STATIONS ARE QUALITY CONTROLLED. USE DATA WITH CAUTION... ESPECIALLY DEWPOINT OBSERVATIONS. SCZ027-030-031-034>040-042>050-190900- ...SOUTHEAST SOUTH CAROLINA... CITY SKY/WX TMP DP RH WIND PRES REMARKS N CHARLESTON PTCLDY 81 74 79 SW7 29.93F WATERFRONT PRK N/A N/A N/A N/A SW5 29.78F JOHNS ISLAND FAIR 82 77 83 SW5 29.94S HX 91 PINOPOLIS N/A 82 77 83 SW6 29.87S HX 91 MONCKS CORNER FAIR 77 75 94 CALM 29.93F SUMMERVILLE FAIR 79 73 83 CALM 29.94F BEAUFORT MCAS CLEAR 79 75 87 SW5 29.94F BEAUFORT ARPT FAIR 79 73 83 SW6 29.93F HILTON HEAD IS CLEAR 81 75 83 SW6 29.95S WALTERBORO MOSUNNY 77 73 88 SW5 29.94F ALLENDALE NOT AVBL ...SOUTHERN MIDLANDS AND PEE DEE... CITY SKY/WX TMP DP RH WIND PRES REMARKS GEORGETOWN FAIR 79 79 100 SW6 29.94F KINGSTREE FAIR 77 73 88 CALM 29.92F ORANGEBURG CLEAR 77 75 93 S3 29.93F BARNWELL FAIR 79 77 94 CALM 29.93F AIKEN FAIR 72 72 100 S5 29.98S MANNING FAIR 81 79 94 MISG 29.92F COLUMBIA PTCLDY 78 73 84 CALM 29.92S SUMTER PTCLDY 80 76 87 S5 29.90F FLORENCE MOCLDY 80 78 94 S6 29.92F MYRTLE BEACH NOT AVBL N MYRTLE BEACH MOCLDY 82 79 90 SW12 29.93S HX 92 $$ GAZ063-065-086>088-099>101-113>116-118-119-134>141-150-190900- ...SOUTHEAST GEORGIA... CITY SKY/WX TMP DP RH WIND PRES REMARKS SAVANNAH ARPT MOCLDY 78 74 87 SW5 29.95F HUNTER AAF PTCLDY 79 73 83 W6 29.93S FORT STEWART CLEAR 77 73 87 SW6 29.93F STATESBORO CLEAR 78 73 83 CALM 29.94F SYLVANIA SUNNY 78 77 97 CALM 29.94F CLAXTON FAIR 78 75 92 CALM 29.95S ...CSRA...CENTRAL AND FAR SOUTHEAST GEORGIA... CITY SKY/WX TMP DP RH WIND PRES REMARKS THOMSON CLEAR 72 70 94 CALM 29.99S AUGUSTA-BUSH CLEAR 77 74 90 CALM 29.92S AUGUSTA-DANIEL CLEAR 80 68 66 W5 29.94F SWAINSBORO FAIR 75 75 100 CALM 29.96F VIDALIA CLEAR 77 77 100 W3 29.96S EASTMAN FAIR 75 75 100 CALM 29.99S HAZLEHURST FAIR 78 76 92 CALM 29.95S ALMA CLEAR 76 74 93 S3 29.96F WAYCROSS CLEAR 75 72 89 CALM 29.96F JESUP FAIR 75 72 88 CALM 29.95F BAXLEY FAIR 73 73 100 SW3 29.96S BRUNSWICK CLEAR 75 72 88 CALM 29.96F SAINT SIMONS CLEAR 78 75 90 W6 29.96F $$ SCZ027-028-034-036>038-045-046-048>050-GAZ119-141-190900- ...LAKE AND SUPPLEMENTAL COASTAL OBSERVATIONS... STATION/POSITION TIME TEMP WIND PRES WAVE SWELL AIR SEA DIR/SP/G HT/PER HT/PER/DIR (UTC) (F) (DEG/KT/KT) (MB) (FT/S) (FT/S/D) WINYAH BAY 0745 83 230/ 8 1014.0S LAKE MURRAY 0820 81 230/ 5/ 6 1012.2F ACE BASIN NERRS 0730 81 CALM 1014.0S FORT PULASKI 0800 79 86 250/ 5/ 7 1014.3 SAPELO ISLAND 0800 79 240/ 5 1014.0 $$ ANZ835-935-AMZ111-154-330-350-352-354-370-450-454-472-190900- ...C-MAN AND BUOY OBSERVATIONS... STATION/POSITION TIME TEMP WIND PRES WAVE SWELL AIR SEA DIR/SP/G HT/PER HT/PER/DIR (UTC) (F) (DEG/KT/KT) (MB) (FT/S) (FT/S/D) BUOY 41004 0810 84 85 220/ 16/ 19 1013.6 BUOY 41008 0750 82 85 240/ 10/ 12 1014.0F 2/ 3 2/ 90/ 8 FOLLY BEACH CMAN 0800 85 220/ 11/ 14 1014.2F CAPERS NEARSHORE 0808 82 85 240/ 14/ 19 1013.3F FRIPP NEARSHORE 0808 84 240/ 14/ 17 1013.3F STATION/POSITION TIME TEMP WIND PRES WAVE SWELL AIR SEA DIR/SP/G HT/PER HT/PER/DIR (UTC) (F) (DEG/KT/KT) (MB) (FT/S) (FT/S/D) 5E ST. MARYS GA 0800 84 N/A 1/ 7 FRYING PAN BUOY 0810 84 84 230/ 17/ 19 1013.5 BUOY 41025 0750 84 85 240/ 19/ 23 1012.5F 6/ 6 2/340/13 CAPE LOOKOUT NC 0800 83 220/ 11/ 14 1012.7F BUOY 41002 0750 84 84 210/ 14/ 17 1015.9F 4/ 5 2/ 90/ 8 BUOY 41010 0810 84 85 170/ 12/ 14 1015.3 ST AUGUSTINE FL 0800 76 81 230/ 4/ 5 1015.4R $$

USA.gov is the U.S. government's official web portal to all federal, state and local government web resources and services.